Flag for U.S.A. Weather past 2 weeks in Elizabeth, New Jersey, U.S.A.

Now
74 °F

Partly cloudy.


Feels Like: 73 °F
Forecast: 74 / 86 °F
Wind: 3 mph from Southeast

Location: Newark International Airport

Current Time: Jul 1, 2015 at 3:08:48 AM

Latest Report: Jul 1, 2015 at 1:51 AM


Visibility: 10 mi

Pressure: 29.79 "Hg

Humidity: 88%

Dew point: 70 °F

Location of ElizabethLocation

Historic Weather in Elizabeth — Graph

°F

Elizabeth temperature yesterday

Maximum temperature yesterday: 83 °F (at 1:51 PM)
Minimum temperature yesterday: 66 °F (at 3:51 AM)
Average temperature yesterday: 74 °F

Past Weeks' High & Low Weather Summary

 TemperatureHumidityPressure
High92 °F (Jun 23, 4:51 PM)100% (Jun 21, 3:58 AM)30.13 "Hg (Jun 21, 3:58 AM)
Low61 °F (Jun 27, 8:51 PM)31% (Jun 25, 12:51 PM)29.65 "Hg (Jun 28, 5:51 AM)
Average74 °F67%29.93 "Hg
* Reported Jun 16 1:51 AM — Jul 1 1:51 AM, Elizabeth, Weather by CustomWeather, © 2015

Note: Actual official high and low records may vary slightly from our data, if they occured in-between our weather recording intervals... More about our weather records

Advertising

Elizabeth weather history for previous 24 hours

 ConditionsComfort  
Time TempWeatherWind HumidityBarometerVisibility
1:51 AM
Wed, Jul 1
74 °FPartly cloudy.3 mph88%29.79 "Hg10 mi
1:01 AM73 °FPassing clouds.5 mph89%29.82 "Hg10 mi
11:51 PM
Tue, Jun 30
74 °FPartly cloudy.6 mph88%29.83 "Hg10 mi
10:51 PM73 °FMostly cloudy.8 mph88%29.85 "Hg10 mi
9:51 PM73 °FPassing clouds.7 mph88%29.86 "Hg10 mi
8:51 PM74 °FBroken clouds.10 mph82%29.87 "Hg10 mi
7:51 PM74 °FBroken clouds.7 mph82%29.88 "Hg10 mi
6:51 PM76 °FBroken clouds.10 mph77%29.86 "Hg10 mi
5:51 PM76 °FLight rain. Broken clouds.12 mph77%29.86 "Hg10 mi
4:51 PM77 °FBroken clouds.12 mph66%29.88 "Hg10 mi
3:51 PM81 °FBroken clouds.12 mph54%29.88 "Hg10 mi
2:51 PM82 °FBroken clouds.13 mph51%29.89 "Hg10 mi
1:51 PM83 °FBroken clouds.14 mph43%29.91 "Hg10 mi
12:51 PM82 °FBroken clouds.16 mph43%29.93 "Hg10 mi
11:51 AM82 °FBroken clouds.14 mph43%29.94 "Hg10 mi
10:51 AM80 °FPartly sunny.6 mph54%29.95 "Hg10 mi
9:51 AM77 °FPartly sunny.10 mph52%29.96 "Hg10 mi
8:51 AM74 °FBroken clouds.3 mph57%29.97 "Hg10 mi
7:51 AM71 °FPartly sunny.3 mph71%29.98 "Hg10 mi
6:51 AM70 °FScattered clouds.3 mph71%29.97 "Hg10 mi
5:51 AM68 °FPassing clouds.No wind73%29.96 "Hg10 mi
4:51 AM67 °FPassing clouds.No wind76%29.94 "Hg10 mi
3:51 AM66 °FPassing clouds.5 mph75%29.95 "Hg10 mi
Weather by CustomWeather, © 2015

See weather overviewHow to use our weather pages